Regional Weather Roundup
Issued by NWS San Angelo, TX

Home | Current Version | Previous Version | Text Only | Print | Product List | Glossary On
Versions: 1 2 3 4 5 6 7 8 9 10 11 12 13 14 15 16 17 18 19 20 21 22 23 24 25 26 27 28 29 30 31 32 33 34 35 36 37 38 39 40 41 42 43 44 45 46 47 48 49 50
000
ASUS44 KSJT 050102
RWRSJT
WEST CENTRAL TEXAS REGIONAL WEATHER ROUNDUP
NATIONAL WEATHER SERVICE SAN ANGELO TX
800 PM CDT TUE AUG 04 2015

NOTE: "FAIR" INDICATES FEW OR NO CLOUDS BELOW 12,000 FEET WITH NO
SIGNIFICANT WEATHER AND/OR OBSTRUCTIONS TO VISIBILITY.

TXZ049-054-064>066-071>073-076>078-098-099-113-114-127-128-139-140-
154-155-168>170-050200
...LOCATIONS ACROSS WEST CENTRAL TEXAS...

CITY           SKY/WX    TMP DP  RH WIND       PRES   REMARKS
SAN ANGELO     CLEAR     98  59  27 SE6       29.89R
ABILENE        CLEAR     93  63  36 SE15      29.91R
DYESS AFB      CLEAR     94  65  37 SE13      29.89R
JUNCTION       CLEAR     95  61  32 SE12      29.92R
SWEETWATER     CLEAR     94  59  31 SE8       29.95S
BROWNWOOD      NOT AVBL
COLEMAN        CLEAR     95  63  34 SE8       29.91S
SONORA         CLEAR     95  59  30 S9        29.97R
OZONA          FAIR      95  55  26 S10       29.95S
BRADY          CLEAR     97  61  30 SE6       29.91S
$$

TEXAS PANHANDLE/OKLAHOMA PANHANDLE

CITY           SKY/WX    TMP DP  RH WIND       PRES   REMARKS
AMARILLO       CLEAR     86  65  49 S10       29.96F
BORGER         CLEAR     89  68  49 S8        29.92S
CANADIAN       CLEAR     87  72  60 S9        29.89S
DALHART        CLEAR     87  62  43 S9        29.96F
DUMAS          CLEAR     84  67  56 S8        29.95S
GUYMON         NOT AVBL
HEREFORD       NOT AVBL
PAMPA          CLEAR     86  68  54 S8        29.96S
PERRYTON       NOT AVBL
$$

SOUTHERN PANHANDLE/SOUTH PLAINS/ROLLING PLAINS

CITY           SKY/WX    TMP DP  RH WIND       PRES   REMARKS
LUBBOCK        PTCLDY    88  67  49 S14       29.97R
SNYDER         PTCLDY    94  64  36 SE9       29.93R
CHILDRESS      CLEAR     90  68  48 S8        29.89S
SEMINOLE       CLEAR     93  54  26 S7        29.97S
$$

PERMIAN BASIN

CITY           SKY/WX    TMP DP  RH WIND       PRES   REMARKS
MIDLAND        CLEAR     97  56  25 SW5       29.93R
ODESSA         MOCLDY    97  54  23 VRB5      29.94S
WINK           CLEAR     99  52  20 E6        29.90S
$$

FAR WEST/SOUTHWEST MOUNTAINS/TRANS PECOS

CITY           SKY/WX    TMP DP  RH WIND       PRES   REMARKS
ALPINE         CLOUDY    82  64  54 SW3       30.12S
DRYDEN           N/A     97  61  30 SE6G17    29.90R
EL PASO        FAIR      97  43  15 NW10      29.99S
FORT STOCKTON  PTCLDY    93  60  33 SE12      29.94S
GUADALUPE PASS PTSUNNY   84  50  30 E10       30.15S
MARFA          MOCLDY    82  61  47 S5        30.12R
PECOS          NOT AVBL
$$

DALLAS/FORT WORTH METROPLEX

CITY           SKY/WX    TMP DP  RH WIND       PRES   REMARKS
DFW AIRPORT    PTCLDY    95  64  35 SE12      29.86S
FTW MEACHAM    CLEAR     96  61  31 S9        29.86S
DAL-EXECUTIVE  CLEAR     93  63  36 SE8       29.87S
GRAND PRAIRIE  CLEAR     93  66  40 SE6       29.88F
ADDISON        PTCLDY    95  61  31 SE13      29.98R
MESQUITE       CLEAR     93  63  36 SE7       29.88F
LANCASTER      CLEAR     93  62  34 SE8       29.88F
$$

NORTH CENTRAL TEXAS

CITY           SKY/WX    TMP DP  RH WIND       PRES   REMARKS
SHRMAN/DENISON PTCLDY    92  65  40 SE8       29.89S
GAINESVILLE    NOT AVBL
BRIDGEPORT     NOT AVBL
DENTON         PTCLDY    93  65  39 SE9       29.87S
WAXAHACHIE     CLEAR     92  66  41 SE5       29.89F
GRANBURY       NOT AVBL
$$

WESTERN NORTH TEXAS

CITY           SKY/WX    TMP DP  RH WIND       PRES   REMARKS
WICHITA FALLS  PTCLDY    89  70  53 SE12      29.87R
VERNON         CLEAR     93  60  32 S9        29.88S
BRECKENRIDGE   CLEAR     94  60  32 SE8       29.88S
COMANCHE       CLEAR     93  63  37 SE7       29.90S
$$

CENTRAL AND SOUTH CENTRAL TEXAS

CITY           SKY/WX    TMP DP  RH WIND       PRES   REMARKS
AUSTIN/BERGSTM PTCLDY    93  67  42 S9        29.89R
WACO           CLEAR     94  67  41 SE13      29.87S
HILLSBORO      NOT AVBL
TEMPLE         CLEAR     93  64  38 S13       29.89S
KILLEEN-GRAY   NOT AVBL
FORT HOOD      CLEAR     93  66  40 SE16      29.88S
GEORGETOWN     CLEAR     93  64  38 S8        29.89R
LAGO VISTA     FAIR      91  65  42 SE6       29.93S
SAN MARCOS     PTCLDY    91  66  43 SE10      29.90R
NEW BRAUNFELS  CLEAR     95  66  38 SE13      29.88S
RANDOLPH AFB   CLEAR     92  65  40 SE12      29.89S
SAN ANTONIO    PTCLDY    94  65  38 SE13      29.90R
STINSON        CLEAR     94  66  39 SE12      29.86S
PLEASANTON     NOT AVBL
LA GRANGE      CLEAR     93  69  46 S6        29.88S
GIDDINGS       NOT AVBL
$$

EAST TEXAS

CITY           SKY/WX    TMP DP  RH WIND       PRES   REMARKS
PARIS          CLEAR     90  64  43 S7        29.90R
CLARKSVILLE    NOT AVBL
TYLER          CLEAR     93  62  35 S5        29.90R
LONGVIEW       CLEAR     93  67  42 S8        29.89R
PALESTINE      CLEAR     92  69  46 SE3       29.91R
NACOGDOCHES    CLEAR     90  70  51 SE3       29.90R
$$

TEXAS HILL COUNTRY AND EDWARDS PLATEAU

CITY           SKY/WX    TMP DP  RH WIND       PRES   REMARKS
LLANO          NOT AVBL
HORSESHOE BAY  FAIR      93  65  39 S7        29.91S
KERRVILLE      CLEAR     92  67  44 SE6       29.94R
FREDERICKSBRG  NOT AVBL
ROCKSPRINGS    NOT AVBL
HONDO          CLEAR     94  66  39 SE14      29.90R
UVALDE         CLEAR     94  66  39 SE8       29.88S
DEL RIO        CLEAR     98  63  31 SE12      29.83R
$$

SOUTHEAST TEXAS

CITY           SKY/WX    TMP DP  RH WIND       PRES   REMARKS
COLLEGE STN    CLEAR     91  71  51 SE8       29.91R
CALDWELL       CLEAR     90  70  51 SE9       29.93R
CROCKETT       NOT AVBL
BRENHAM        CLEAR     91  71  50 SE6       29.91S
HUNTSVILLE     CLEAR     90  72  55 S8        29.92R
CONROE         PTCLDY    88  71  57 S10       29.92S
HOUSTON BUSH   MOCLDY    89  74  60 S8        29.92R
HOUSTON HOBBY  MOCLDY    88  70  55 S12       29.92R
PERLAND        CLEAR     89  72  56 SE7       29.94S
WHARTON        PTCLDY    86  73  64 S10       29.93R
$$

THE UPPER TEXAS COAST

CITY           SKY/WX    TMP DP  RH WIND       PRES   REMARKS
ORANGE         CLEAR     87  69  54 CALM      29.95R
PORT ARTHUR    CLEAR     86  77  74 S10       29.93S
GALVESTON      CLEAR     87  74  64 S12       29.96R
ANGLETON       CLEAR     86  75  69 S10       29.94R
BAY CITY       PTCLDY    86  77  73 S7        29.94R
$$

TEXAS COASTAL BEND, RIO GRANDE PLAINS DEEP SOUTH TEXAS

CITY           SKY/WX    TMP DP  RH WIND       PRES   REMARKS
VICTORIA       CLEAR     87  76  69 S16       29.92R
BEEVILLE       FAIR      87  77  74 SE12G21   29.91S
ROCKPORT       MOCLDY    86  78  77 SE14      29.91S
PORT ARANSAS   CLEAR     85  80  84 SE13G18   29.91S
PORT LAVACA    CLEAR     86  77  74 SE10      29.93R
CORPUS CHRISTI PTCLDY    85  76  74 SE18      29.91R
KINGSVILLE NAS PTCLDY    87  79  76 SE18G28   29.90R
COTULLA        PTCLDY    99  61  28 SE16      29.85R
LAREDO         CLEAR     99  62  29 E17       29.85R
BROWNSVILLE    PTCLDY   N/A N/A N/A SE16      29.91R
PORT ISABEL    PTCLDY    86  76  71 SE17      29.91R
HEBBRONVILLE   NOT AVBL
MCALLEN        CLEAR     93  73  52 SE20      29.87R
WESLACO        CLEAR     89  73  58 SE14G21   29.88R
FALFURRIAS     CLEAR     89  75  63 SE13G18   29.88R
EDINBURG       CLEAR     91  73  56 SE15G22   29.87S
$$


USA.gov is the U.S. government's official web portal to all federal, state and local government web resources and services.